[[{"header":{"parameterUnit":"m.s-1","parameterCategory":1,"la1":30.2991,"la2":30.254,"lo1":-89.0895,"lo2":-89.0444,"dy":0.0017,"dx":0.0017,"nx":28,"ny":28,"refTime":"2025-05-24T21:00:00:Z","depth":0,"parameterNumber":2,"parameterNumberName":"U-component_of_WINDS"},"data":[0,0,0,0,0,0,0,0,0,0,0,0,0,0,0,0,0,0,0,0,0,0,0,0,0,0,0,0,0,0,0,0,0,0,0,0,0,0,0,0,0,0,0,0,0,0,0,0,0,0,0,0,0,0,0,0,0,0,-0.6164,-0.6164,0,-0.611,-0.611,-0.6109,-0.6093,-0.6094,-0.6094,-0.6094,-0.6041,-0.6039,-0.6038,0,0,0,0,0,0,0,0,0,0,0,0,0,-0.6257,-0.6255,-0.6165,-0.6164,-0.6163,-0.6111,-0.611,-0.6109,-0.6093,-0.6094,-0.6094,-0.6094,-0.6042,-0.604,-0.6038,0,0,0,0,0,0,0,0,0,0,0,0,0,-0.6211,-0.6255,-0.6165,-0.6149,-0.6147,-0.6111,-0.611,-0.6109,-0.6093,-0.6094,-0.6094,-0.6094,-0.6042,-0.604,-0.6037,-0.6014,0,0,-0.603,-0.6029,0,0,0,0,0,0,0,0,-0.6214,-0.6208,-0.6152,-0.615,-0.6148,-0.6109,-0.6123,-0.6077,-0.6093,-0.6114,-0.6094,-0.6095,-0.6063,-0.6059,-0.6048,-0.6011,-0.6009,-0.6029,-0.6028,-0.6027,-0.6026,0,0,0,0,0,0,0,-0.6217,-0.621,-0.6143,-0.6151,-0.6148,-0.6145,-0.6139,-0.6114,-0.6087,-0.6112,-0.6111,-0.6104,-0.6062,-0.6051,-0.6047,-0.6008,-0.6029,-0.6027,-0.6026,-0.6025,-0.595,-0.5949,0,0,0,0,0,0,-0.6222,-0.6213,-0.6145,-0.6142,-0.6182,-0.6143,-0.6137,-0.6121,-0.6087,-0.6082,-0.6104,-0.6104,-0.6055,-0.605,-0.6045,-0.6015,-0.6027,-0.6025,-0.6023,-0.595,-0.595,-0.5949,0,0,0,0,0,0,-0.6224,-0.6217,-0.6147,-0.6177,-0.6168,-0.6141,-0.6124,-0.612,-0.6108,-0.6081,-0.6077,-0.6097,-0.6055,-0.6048,-0.6022,-0.6013,-0.6023,-0.6021,-0.5951,-0.595,-0.5949,-0.5955,0,0,0,0,0,0,-0.6227,-0.6217,-0.6207,-0.6177,-0.6166,-0.6124,-0.6123,-0.6118,-0.6103,-0.6103,-0.6073,-0.6069,-0.6055,-0.6025,-0.6019,-0.601,-0.6019,-0.5951,-0.595,-0.595,-0.5956,-0.5955,-0.5954,0,0,0,0,0,-0.6231,-0.6212,-0.6207,-0.6199,-0.6153,-0.6123,-0.6117,-0.6101,-0.6103,-0.6093,-0.6076,-0.607,-0.6015,-0.6023,-0.6015,-0.6005,-0.5952,-0.5951,-0.595,-0.5956,-0.5955,-0.5954,0,0,0,0,0,0,-0.6243,-0.6207,-0.6202,-0.6172,-0.6151,-0.6121,-0.6108,-0.61,-0.6078,-0.6079,-0.606,-0.6054,-0.6028,-0.6014,-0.6023,-0.5981,-0.5983,-0.5981,-0.5991,-0.599,-0.5989,-0.5993,-0.6017,0,0,0,0,0,-0.6242,-0.622,-0.619,-0.6167,-0.6157,-0.6134,-0.6121,-0.611,-0.6087,-0.6078,-0.6059,-0.6038,-0.6016,-0.6002,-0.5981,-0.5954,-0.5948,-0.5944,-0.5943,-0.5942,-0.594,-0.5926,-0.5924,-0.5945,-0.5945,-0.5945,0,0,-0.624,-0.6218,-0.6205,-0.6169,-0.6151,-0.613,-0.6127,-0.6104,-0.6088,-0.6075,-0.6048,-0.6034,-0.6009,-0.5982,-0.597,-0.597,-0.5933,-0.5941,-0.5941,-0.5939,-0.5924,-0.5922,-0.5921,-0.5945,-0.5945,-0.5945,0,0,-0.6226,-0.6206,-0.6185,-0.6167,-0.614,-0.6125,-0.612,-0.6091,-0.6081,-0.6054,-0.6044,-0.6025,-0.5988,-0.5971,-0.5957,-0.5937,-0.5931,-0.5931,-0.5927,-0.5913,-0.5911,-0.5909,-0.5902,-0.59,-0.5929,-0.5929,-0.5929,0,-0.6227,-0.6193,-0.6175,-0.6153,-0.6138,-0.6124,-0.6103,-0.6087,-0.6055,-0.6045,-0.6046,-0.5999,-0.5982,-0.5951,-0.5946,-0.5936,-0.593,-0.5934,-0.5912,-0.5911,-0.5909,-0.5902,-0.59,-0.5929,-0.5929,-0.5929,-0.5929,0,-0.6196,-0.6173,-0.6159,-0.6127,-0.6111,-0.6089,-0.6069,-0.6054,-0.6045,-0.6031,-0.6004,-0.5983,-0.5957,-0.5949,-0.594,-0.5917,-0.5918,-0.5916,-0.5918,-0.5907,-0.5901,-0.5898,-0.5929,-0.5929,-0.5929,-0.5929,0,0,-0.6187,-0.6146,-0.6141,-0.6127,-0.6096,-0.6079,-0.6057,-0.6031,-0.6019,-0.5998,-0.5979,-0.5948,-0.5946,-0.5931,-0.5921,-0.5908,-0.5894,-0.5908,-0.5907,-0.5906,-0.5868,-0.587,-0.5867,-0.589,-0.589,-0.5889,-0.587,0,-0.6169,-0.6128,-0.6112,-0.608,-0.6058,-0.6046,-0.6027,-0.6007,-0.5993,-0.5974,-0.5959,-0.5938,-0.5937,-0.5927,-0.5915,-0.5899,-0.5886,-0.59,-0.5874,-0.5873,-0.588,-0.5863,-0.5865,-0.5848,-0.5868,-0.5867,-0.5867,0,-0.6142,-0.6119,-0.6084,-0.6057,-0.6047,-0.603,-0.6006,-0.5987,-0.5965,-0.5956,-0.5939,-0.5929,-0.5907,-0.5911,-0.588,-0.589,-0.5878,-0.5869,-0.5868,-0.5865,-0.5869,-0.586,-0.5842,-0.584,-0.5862,-0.5863,-0.5863,0,-0.6139,-0.61,-0.6074,-0.6062,-0.6029,-0.6018,-0.6004,-0.5982,-0.5967,-0.5946,-0.5937,-0.5914,-0.5901,-0.5884,-0.5868,-0.5872,-0.584,-0.5842,-0.5832,-0.5832,-0.5825,-0.5826,-0.5806,-0.5818,-0.5818,-0.5818,-0.5818,0,-0.612,-0.6099,-0.6072,-0.6056,-0.6033,-0.6015,-0.5993,-0.5979,-0.5959,-0.5941,-0.5929,-0.5913,-0.5894,-0.5875,-0.5863,-0.584,-0.5834,-0.5827,-0.5824,-0.5828,-0.5829,-0.582,-0.5821,-0.5818,-0.5818,-0.5818,-0.5818,0,-0.6112,-0.6093,-0.6064,-0.6036,-0.6028,-0.6012,-0.5988,-0.5973,-0.5959,-0.5936,-0.593,-0.5908,-0.5885,-0.5868,-0.5839,-0.5831,-0.5807,-0.5804,-0.5814,-0.5813,-0.5804,-0.5805,-0.5777,-0.5773,-0.5788,-0.5788,-0.5788,0,-0.6101,-0.6085,-0.6054,-0.6041,-0.6027,-0.6005,-0.599,-0.5973,-0.5958,-0.5931,-0.592,-0.5896,-0.5876,-0.5841,-0.5823,-0.5801,-0.5797,-0.5789,-0.5794,-0.5799,-0.5797,-0.5799,-0.5797,-0.5789,-0.5788,-0.5788,-0.5788,0,-0.6084,-0.6075,-0.6054,-0.6029,-0.6012,-0.5992,-0.5971,-0.5961,-0.5941,-0.5925,-0.5901,-0.5886,-0.5856,-0.5833,-0.5809,-0.5796,-0.5789,-0.5787,-0.5784,-0.5787,-0.5794,-0.579,-0.5812,-0.5788,-0.5788,-0.5788,-0.5788,-0.5788,-0.6074,-0.6059,-0.6035,-0.6012,-0.5995,-0.5976,-0.5961,-0.5944,-0.5924,-0.5898,-0.5889,-0.5865,-0.5844,-0.5811,-0.5798,-0.5779,-0.5779,-0.5774,-0.5773,-0.5772,-0.5772,-0.5797,-0.5775,-0.5775,-0.5775,-0.5775,-0.5775,0,-0.6057,-0.6041,-0.6019,-0.5991,-0.5973,-0.5967,-0.5945,-0.593,-0.5909,-0.5889,-0.587,-0.5843,-0.5821,-0.5801,-0.5779,-0.5768,-0.5764,-0.5762,-0.5763,-0.576,-0.5773,-0.5779,-0.5766,-0.5766,-0.5766,-0.5766,-0.5766,-0.5766,-0.6045,-0.6019,-0.6008,-0.5974,-0.5959,-0.5934,-0.5922,-0.5905,-0.5889,-0.586,-0.5841,-0.5828,-0.5809,-0.5785,-0.5765,-0.576,-0.5752,-0.5751,-0.5745,-0.5758,-0.5759,-0.576,-0.5765,-0.575,-0.575,-0.5734,-0.5733,-0.5733]},{"header":{"parameterUnit":"m.s-1","parameterCategory":1,"la1":30.2991,"la2":30.254,"lo1":-89.0895,"lo2":-89.0444,"dy":0.0017,"dx":0.0017,"nx":28,"ny":28,"refTime":"2025-05-24T21:00:00:Z","depth":0,"parameterNumber":3,"parameterNumberName":"V-component_of_WINDS"},"data":[0,0,0,0,0,0,0,0,0,0,0,0,0,0,0,0,0,0,0,0,0,0,0,0,0,0,0,0,0,0,0,0,0,0,0,0,0,0,0,0,0,0,0,0,0,0,0,0,0,0,0,0,0,0,0,0,0,0,5.3764,5.3763,0,5.3671,5.367,5.3669,5.3536,5.3534,5.3532,5.3529,5.3433,5.3433,5.3432,0,0,0,0,0,0,0,0,0,0,0,0,0,5.3828,5.3828,5.3764,5.3763,5.3762,5.3671,5.367,5.3668,5.3537,5.3534,5.3531,5.3528,5.3433,5.3433,5.3432,0,0,0,0,0,0,0,0,0,0,0,0,0,5.3775,5.3828,5.3765,5.3685,5.3677,5.3671,5.367,5.3668,5.3537,5.3534,5.353,5.3527,5.3433,5.3433,5.3432,5.3496,0,0,5.343,5.343,0,0,0,0,0,0,0,0,5.3778,5.3772,5.3698,5.3691,5.3682,5.3612,5.3657,5.361,5.3538,5.359,5.3529,5.3525,5.3495,5.3489,5.3479,5.3492,5.3487,5.343,5.343,5.3429,5.3429,0,0,0,0,0,0,0,5.3782,5.3776,5.3727,5.3697,5.3687,5.3654,5.3643,5.3647,5.3563,5.3586,5.3576,5.3566,5.349,5.348,5.3476,5.3486,5.343,5.3429,5.3429,5.3429,5.3545,5.3549,0,0,0,0,0,0,5.3797,5.378,5.373,5.3724,5.3722,5.3656,5.3643,5.3638,5.3563,5.3548,5.3569,5.3561,5.3483,5.3477,5.3472,5.3541,5.3429,5.3429,5.3428,5.3542,5.3546,5.355,0,0,0,0,0,0,5.3799,5.3794,5.3734,5.3749,5.3739,5.3658,5.3653,5.3638,5.3627,5.355,5.3535,5.3575,5.348,5.3473,5.3491,5.3536,5.3428,5.3428,5.3538,5.3543,5.3548,5.3681,0,0,0,0,0,0,5.3802,5.3796,5.3819,5.3751,5.3739,5.3755,5.3656,5.3638,5.3627,5.3614,5.3551,5.3538,5.3477,5.3493,5.349,5.3533,5.3427,5.3533,5.354,5.3546,5.3672,5.369,5.3705,0,0,0,0,0,5.3804,5.386,5.3821,5.3816,5.3767,5.3758,5.3751,5.368,5.3631,5.3654,5.3604,5.354,5.3532,5.3496,5.3492,5.3535,5.353,5.3538,5.3546,5.3664,5.3686,5.3705,0,0,0,0,0,0,5.3935,5.385,5.3805,5.3841,5.3808,5.3736,5.3762,5.3706,5.3686,5.3675,5.3588,5.3575,5.3603,5.3571,5.3532,5.3593,5.3521,5.3529,5.3613,5.3633,5.3649,5.3656,5.3427,0,0,0,0,0,5.3969,5.3969,5.3894,5.3932,5.3918,5.3844,5.3837,5.3786,5.3748,5.3733,5.3685,5.365,5.364,5.3635,5.3621,5.3667,5.3651,5.3695,5.3712,5.3726,5.3733,5.3754,5.3772,5.3576,5.3576,5.3576,0,0,5.4037,5.399,5.3995,5.3958,5.3926,5.3928,5.3833,5.3839,5.3839,5.3733,5.3747,5.3711,5.3667,5.3699,5.3711,5.3673,5.3784,5.3736,5.3748,5.3747,5.3764,5.3783,5.3799,5.3581,5.358,5.3579,0,0,5.4162,5.4127,5.4155,5.4125,5.4078,5.4028,5.4036,5.3972,5.3944,5.3957,5.3877,5.3877,5.3861,5.3832,5.3816,5.3932,5.3871,5.393,5.4016,5.4038,5.4053,5.4067,5.4107,5.4122,5.3937,5.3938,5.3938,0,5.4252,5.4252,5.4176,5.4187,5.4173,5.4078,5.4105,5.408,5.4032,5.4024,5.3983,5.3961,5.3924,5.3948,5.3977,5.3967,5.3971,5.3936,5.4057,5.407,5.4081,5.4118,5.4134,5.3945,5.3944,5.3943,5.3943,0,5.4365,5.4367,5.4395,5.435,5.4339,5.4359,5.4286,5.4284,5.4234,5.4188,5.4202,5.4155,5.413,5.4132,5.4083,5.415,5.4127,5.4073,5.3999,5.4108,5.4142,5.4156,5.3955,5.3953,5.3951,5.3949,0,0,5.4569,5.4483,5.4494,5.4473,5.4415,5.4414,5.443,5.4405,5.4405,5.4375,5.4385,5.4374,5.4324,5.4305,5.4252,5.4272,5.4365,5.4214,5.4212,5.4243,5.4434,5.4475,5.4493,5.4325,5.4328,5.433,5.4438,0,5.4681,5.4702,5.4635,5.4673,5.4673,5.4583,5.4596,5.4562,5.4521,5.4515,5.4468,5.4462,5.4396,5.4384,5.4399,5.4351,5.4402,5.4342,5.4333,5.4334,5.4346,5.451,5.4553,5.4657,5.445,5.4453,5.4454,0,5.4815,5.4792,5.4831,5.477,5.4768,5.4781,5.4753,5.4749,5.4708,5.4676,5.4657,5.4596,5.4606,5.4537,5.4549,5.451,5.4502,5.4478,5.4481,5.4476,5.44,5.4509,5.4688,5.4704,5.4474,5.4473,5.4471,0,5.4958,5.4938,5.4957,5.4942,5.4873,5.4884,5.4856,5.4812,5.4802,5.4778,5.477,5.4748,5.4735,5.472,5.4654,5.461,5.4674,5.46,5.4647,5.4649,5.4664,5.4664,5.4844,5.4662,5.4662,5.4661,5.4661,0,5.509,5.5117,5.5021,5.5033,5.506,5.4983,5.5012,5.4974,5.4937,5.494,5.4862,5.4866,5.478,5.4775,5.4724,5.4742,5.4737,5.4711,5.4697,5.4717,5.4721,5.471,5.4701,5.4665,5.4664,5.4664,5.4663,0,5.5254,5.5191,5.5206,5.514,5.5124,5.5147,5.509,5.5098,5.5052,5.5057,5.5054,5.4981,5.4972,5.4905,5.488,5.4846,5.4882,5.4854,5.4896,5.4886,5.4937,5.4933,5.5116,5.5136,5.4943,5.4945,5.4947,0,5.5342,5.536,5.5296,5.5292,5.5268,5.5264,5.5253,5.5178,5.517,5.5125,5.5139,5.5123,5.5106,5.5095,5.504,5.502,5.499,5.5056,5.4987,5.5007,5.499,5.4989,5.499,5.507,5.5073,5.5075,5.5076,0,5.5504,5.5472,5.5459,5.5437,5.5426,5.5404,5.5378,5.5379,5.5296,5.5292,5.5281,5.5268,5.5243,5.5227,5.5199,5.5168,5.5109,5.5099,5.5109,5.5129,5.5152,5.5139,5.4935,5.5095,5.5093,5.5092,5.5091,5.509,5.5631,5.5643,5.56,5.5589,5.5561,5.5538,5.5543,5.5497,5.5487,5.5461,5.5417,5.5413,5.5372,5.5327,5.5302,5.5297,5.5262,5.5277,5.528,5.5285,5.5295,5.5154,5.5292,5.5291,5.5291,5.529,5.529,0,5.5788,5.5756,5.5747,5.5712,5.5703,5.5649,5.5617,5.5613,5.561,5.5577,5.5562,5.555,5.5535,5.548,5.5459,5.5465,5.5437,5.5462,5.546,5.5454,5.5328,5.5321,5.5485,5.5485,5.5485,5.5485,5.5485,5.5485,5.5868,5.5886,5.5849,5.5852,5.5819,5.5814,5.5801,5.5779,5.5752,5.5742,5.573,5.5694,5.5651,5.5627,5.5611,5.5595,5.559,5.5624,5.5599,5.5482,5.5463,5.5445,5.5438,5.5624,5.5624,5.5725,5.5726,5.5727]}]]